Location: Stara Lesna
(49.1528°N, 20.2911°E)
Time: 05:03:47
(UTC+02:00)

Unknown - Pass Details

Date: 21 September 2019
Orbit: 549 x 551 km, 53.0° (Epoch: 22 October)

Event Time Altitude Azimuth Distance (km) Brightness Sun altitude
Exits shadow 03:43:28 51° 101° (ESE) 699 4.3 -25.3°
Drops below altitude 10° 03:46:49 10° 69° (ENE) 1,828 7.3 -24.9°
Sets 03:49:05 0° 66° (ENE) 2,725 8.5 -24.6°
